Weather in Santo Domingo

Dominican Republic     18°28′44″N   69°55′11″W
temp.,
°C
wind,
m/s
gust,
m/s
humid.,
%
clouds,
%
prec.,
mm/h
press.,
hPa
HPBL,
m
27 november, sat
sat2723:00+23n238357 0.0 1015107
02:00+22nnw228620 0.0 101482
05:00+21nnw22895 0.0 101362
08:00+22n128380 0.0 1015121
11:00+28ne33596 0.0 10161067
14:00+30ene235049 0.0 10131577
17:00+26nne257059 0.3 1013467
20:00+24nne3677100 0.4 1015263
28 november, sun
sun2823:00+22nnw35866 0.0 1016152
02:00+21n358660 0.0 1015136
05:00+21nnw368693 0.0 1015160
08:00+23nnw357974 0.0 1016184
11:00+28ne445592 0.0 10161225
14:00+31ne334565 0.0 10131574
17:00+28ese456081 0.0 1012775
20:00+23nne358229 0.3 1015181
29 november, mon
mon2923:00+22nnw248853 0.1 1015116
02:00+22nnw349081 0.1 1014108
05:00+21nnw23925 0.0 101385
08:00+22nnw23865 0.0 1015123
11:00+29ene22565 0.0 10151081
14:00+31se324831 0.0 10121408
17:00+28sse336410 0.0 1012429
20:00+24w01865 0.3 101437
30 november, tue
tue3023:00+22n22905 0.3 101565
02:00+21nnw22925 0.3 101456
05:00+21n23935 0.0 101471
08:00+22n248638 0.0 1016140
11:00+29ne44609 0.0 10161072
14:00+31ne2345100 0.0 10131631
17:00+29ese3456100 0.0 1013532
20:00+24nne347691 0.1 1016166
1 december, wed
wed123:00+22nnw3585100 0.0 1016125
02:00+22nnw3588100 0.0 1015142
05:00+22nnw358988 0.0 1015125
08:00+23nnw36825 0.0 1017180
11:00+29ne455926 0.0 10171314
14:00+31ese344964 0.0 10141689
17:00+27ese247297 0.3 1014289
20:00+23n349036 0.8 1016119